THORAD DELTA 1 DEB, 8169

Orbit data source: Space-Track

THORAD DELTA 1 DEB, 8169 is space debris in SSO originally from a launch on Fri, 15 Nov 1974 UTC launched from the Air Force Western Test Range (AFWTR). Debris objects in space refer to the collection of defunct objects orbiting the Earth. Examples of debris include non-operational satellites, rocket bodies, and fragments generated from explosions, collisions, or faulty payload assembly.

Loading next visibility...
Identifier
8169, 1974-089AK
Orbit
SSO
Country
Flag of USUS
Related business
Manufacturer
Unknown
Mission
Spacecraft
Bus & Motor
Unknown
Mass
Unknown
Launch date (UTC)
1974-11-15 (51 years ago)
Launch vehicle
Unknown
Launch site
Air Force Western Test Range (AFWTR)
Object type
Payload
Rocket body
Debris
Shape & HBR
Unknown shape, 0.1 m
Radar Cross Section
Small (<0.1 m²)

Expand to show TLE details & history
Last TLE update: 17 hours ago

TLE from 17 hours ago
0 THORAD DELTA 1 DEB
1 08169U 74089AK  26067.91262385  .00001485  00000-0  53611-2 0  9995
2 08169 102.5133  46.2662 0129365 349.4007  67.3238 12.94020478387802
Epoch: 2026-03-08T21:54Z
TLE epoch observation values (Epoch: 2026-03-08T21:54:10.700Z)
Latitude
56.07428°
Longitude
-108.05698°
Altitude
1,257.608 km
Speed
7.249 km/s
True Right ascension
01h 48m 24s
True Declination
55° 55' 31"
Sunlit
Object was in daylight at epoch
Visualization orbit readout
Latitude
Unknown
Longitude
Unknown
Altitude
Unknown
Speed
Unknown
Apparent Right ascension
Unknown
Apparent Declination
Unknown
Sunlit
N/A
Visualization observer readout
Local Sidereal Time
19:21:42
Azimuth
Unknown
Elevation
Unknown
Doppler factor
Unknown
Orbital elements
Apogee altitude
1,382.255 km
Perigee altitude
1,184.034 km
Semi-major axis
7,661.281 km
Eccentricity
0.01294
Inclination
102.5133°
RAAN
46.2662°
Arg. of periapsis
349.4007°
True anomaly
68.70007°
Mean anomaly
67.3238°
Eccentric anomaly
68.01109°
Mean motion
3.23661 °/min
Orbital period
111.23 mins
BSTAR
0.0053611
Loading maneuver chart data...
Computing Atmospheric mass density...

Documentation

Showing up to 5 results
|